Regional Weather Roundup
Issued by NWS

Home | Current Version | Previous Version | Text Only | Print | Product List | Glossary On
Versions: 1 2 3 4 5 6 7 8 9 10 11 12 13 14 15 16 17 18 19 20 21 22 23 24 25 26 27 28 29 30 31 32 33 34 35 36 37 38 39 40 41 42 43 44 45 46 47 48 49 50
000
ASUS43 KLMK 221010
RWRKY
KENTUCKY REGIONAL WEATHER ROUNDUP
NATIONAL WEATHER SERVICE LOUISVILLE KY
600 AM EDT MON SEP 22 2014

NOTE "FAIR" INDICATES FEW OR NO CLOUDS BELOW 12,000 FEET
WITH NO SIGNIFICANT WEATHER AND/OR OBSTRUCTIONS TO VISIBILITY.

KYZ001>023-026-027-061>063-070>075-221100-
WESTERN AND SOUTH CENTRAL KENTUCKY

CITY           SKY/WX    TMP DP  RH WIND       PRES   REMARKS
PADUCAH        CLEAR     56  50  80 CALM      30.16R
HENDERSON      CLEAR     55  48  76 N6        30.16R
OWENSBORO      CLEAR     56  51  83 N6        30.16R
HOPKINSVILLE   CLEAR     55  51  87 N5        30.14R
BOWLING GREEN  CLEAR     52  49  89 CALM      30.14R
GLASGOW        CLEAR     49  49 100 CALM      30.14R
$$

KYZ024-025-028>034-038-045-046-053-221100-
NORTH CENTRAL KENTUCKY

CITY           SKY/WX    TMP DP  RH WIND       PRES   REMARKS
LOUISVILLE/SDF CLOUDY    58  49  72 N7        30.15R
LOUISVILLE/LOU MOCLDY    57  48  72 N6        30.15R
FORT KNOX      CLOUDY    51  49  92 CALM      30.14R
$$

KYZ035>037-039>044-047>052-055>060-089>105-221100-
NORTHEAST KENTUCKY

CITY           SKY/WX    TMP DP  RH WIND       PRES   REMARKS
LEXINGTON      CLEAR     51  46  83 NW3       30.13R
COVINGTON      MOCLDY    51  46  83 N5        30.12R
FRANKFORT      CLEAR     49  46  90 CALM      30.13R
$$

KYZ054-064>069-076>088-106>120-221100-
SOUTHEAST KENTUCKY

CITY           SKY/WX    TMP DP  RH WIND       PRES   REMARKS
JACKSON        CLEAR     51  47  86 NW5       30.11R
LONDON         CLEAR     51  47  86 CALM      30.12R
SOMERSET       CLEAR     50  48  93 N5        30.13R
MIDDLESBORO    CLEAR     51  50  98 CALM      30.10R
MONTICELLO     SUNNY     48  47  97 CALM      30.14R
$$




USA.gov is the U.S. government's official web portal to all federal, state and local government web resources and services.